Regional Weather Roundup
Issued by NWS Mobile, AL

Home | Current Version | Previous Version | Text Only | Print | Product List | Glossary On
Versions: 1 2 3 4 5 6 7 8 9 10 11 12 13 14 15 16 17 18 19 20 21 22 23 24 25 26 27 28 29 30 31 32 33 34 35 36 37 38 39 40 41 42 43 44 45 46 47 48 49 50
000
ASUS44 KMOB 170212
RWRMOB
REGIONAL WEATHER ROUNDUP
NATIONAL WEATHER SERVICE MOBILE AL
900 PM CDT WED AUG 16 2017

NOTE: "FAIR" INDICATES FEW OR NO CLOUDS BELOW 12,000 FEET WITH NO
      SIGNIFICANT WEATHER AND/OR OBSTRUCTIONS TO VISIBILITY.

  * THESE STATIONS ARE PART OF THE UNIVERSITY OF SOUTH ALABAMA
    MESONET AND ARE NOT UNDER NWS OR FAA QUALITY CONTROL.

ALZ061>064-170300-
COASTAL ALABAMA

CITY           SKY/WX    TMP DP  RH WIND       PRES   REMARKS
MOBILE REG APT PTCLDY    80  74  81 N5        30.10R
BROOKLEY FIELD CLEAR     81  79  94 CALM      30.09R
USA CAMPUS*      N/A     77  73  88 CALM      30.09R
DOG RIVER*     NOT AVBL


CITY           SKY/WX    TMP DP  RH WIND       PRES   REMARKS
GULF SHORES    CLEAR     78  78 100 CALM      30.08R

$$

ALZ051>060-170300-
INTERIOR SOUTHWEST AND SOUTH CENTRAL ALABAMA

CITY           SKY/WX    TMP DP  RH WIND       PRES   REMARKS
GREENVILLE     MOCLDY    83  74  74 W12       30.09R
EVERGREEN      LGT RAIN  79  76  90 NW5       30.09R
ATMORE*        NOT AVBL
ANDALUSIA/OPP  CLOUDY    83  74  74 W8G16     30.10R THUNDER
ANDALUSIA*       N/A     75  73  94 SW9       30.10R
FLORALA APT    NOT AVBL
FLORALA*         N/A     81  75  83 SW6       30.81R

$$

FLZ001>006-170300-
WESTERN FLORIDA PANHANDLE

CITY           SKY/WX    TMP DP  RH WIND       PRES   REMARKS
PENSACOLA      CLEAR     85  76  74 SW3       30.08R
NAS PENSACOLA  PTCLDY    81  76  84 W3        30.07R
MILTON         MOCLDY    81  76  84 W5        30.09R
WHTNG S FIELD  PTCLDY    84  77  79 CALM      30.09R


CITY           SKY/WX    TMP DP  RH WIND       PRES   REMARKS
JAY*             N/A     77  75  94 S5        30.09R
DUKE FIELD     PTCLDY    82  76  80 SW5       30.08R
CRESTVIEW      CLEAR     83  76  79 NW5       30.09R
VALPARAISO     PTCLDY    84  76  78 W6        30.07R
DESTIN         CLEAR     88  75  65 VRB5      30.07R HX  97

$$

MSZ076-079-170300-
INTERIOR SOUTHEAST MISSISSIPPI

CITY           SKY/WX    TMP DP  RH WIND       PRES   REMARKS
LEAKESVILLE*     N/A     73  73 100 E3        30.09S
AGRICOLA*        N/A     77  75  94 CALM      30.08R

$$

MARINE OBSERVATIONS

STATION/POSITION TIME  TEMP    WIND        PRES    WAVE
                       AIR SEA DIR/SP/G            HT/PER
                 (UTC) (F)     (DEG/KT/KT) (MB)    (FT/S)
PASCAGOULA       0148   86     240/  4/  5 1018.2R
PETIT BOIS ISLND 0148   86     230/  4/  5 1019.0R
GRAND BAY        0045   86     260/  3     1019.0R
KATRINA CUT      0130   85     250/  6     1018.0R
CEDAR POINT      0130   86     240/  7     1018.3R
E DAUPHIN ISLAND 0100   85     250/  4/  5 1017.5R
USCG MOBILE BAY  0148   84 85  230/  3/  5 1019.0R
STATE DOCKS      0148   86 86              1018.2R
WEEKS BAY        0045   83                   N/A
FORT MORGAN      0148   86     240/  7/  8   N/A
12 S ORANGE BCH  0050   86 88  260/  8/ 10 1017.7R   1/ 5
PENSACOLA BAY    0148   86 89              1018.6R
64 S DAUPHIN ISL 0130   86 89  250/  4/  6 1018.5R
67 S FORT MORGAN 0130   85     230/  4     1018.6R

$$

SELECTED LOCATIONS ACROSS THE REGION

CITY           SKY/WX    TMP DP  RH WIND       PRES   REMARKS
NEW ORLEANS    PTCLDY    80  76  87 E6        30.05S
GULFPORT       CLEAR     78  75  90 N3        30.07R
PASCAGOULA AP  CLEAR     79  76  90 N5        30.07R
PASCAGOULA*      N/A     72  72 100 CALM        N/A
HATTIESBURG    CLEAR     74  74 100 S3        30.08R
LAUREL         NOT AVBL
MERIDIAN       CLOUDY    76  76 100 S7        30.06S
JACKSON        CLOUDY    75  73  93 S8        30.03F
MONTGOMERY     CLEAR     82  74  76 SW3       30.07R
TROY           CLEAR     79  79 100 CALM      30.08R
ASHFORD*         N/A     75  73  94 SW9       30.10R
DOTHAN         CLEAR     85  76  74 W6        30.10R
PANAMA CITY    CLEAR     82  77  84 SW5       30.06R

$$




USA.gov is the U.S. government's official web portal to all federal, state and local government web resources and services.